Regional Weather Roundup
Issued by NWS San Angelo, TX

Home | Current Version | Previous Version | Text Only | Print | Product List | Glossary On
Versions: 1 2 3 4 5 6 7 8 9 10 11 12 13 14 15 16 17 18 19 20 21 22 23 24 25 26 27 28 29 30 31 32 33 34 35 36 37 38 39 40 41 42 43 44 45 46 47 48 49 50
000
ASUS44 KSJT 202310
RWRSJT
WEST CENTRAL TEXAS REGIONAL WEATHER ROUNDUP
NATIONAL WEATHER SERVICE SAN ANGELO TX
600 PM CDT WED AUG 20 2014

NOTE: "FAIR" INDICATES FEW OR NO CLOUDS BELOW 12,000 FEET WITH NO
SIGNIFICANT WEATHER AND/OR OBSTRUCTIONS TO VISIBILITY.

TXZ049-054-064>066-071>073-076>078-098-099-113-114-127-128-139-140-
154-155-168>170-210000
...LOCATIONS ACROSS WEST CENTRAL TEXAS...

CITY           SKY/WX    TMP DP  RH WIND       PRES   REMARKS
SAN ANGELO     MOSUNNY   94  64  37 S15G25    29.88S
ABILENE        SUNNY     95  60  31 S20       29.88F
DYESS AFB      MOSUNNY   94  65  38 SE18G24   29.87F
JUNCTION       SUNNY     92  60  34 SE10      29.91S
SWEETWATER     SUNNY     93  63  36 SE17G24   29.92S
BROWNWOOD      SUNNY     97  54  23 S13G23    29.89S
COLEMAN        CLEAR     92  58  32 S16       29.90S
SONORA         SUNNY     91  63  38 S14       29.96S
OZONA          FAIR      91  61  35 S17       29.94R
BRADY          SUNNY     93  61  33 SE12      29.92R
$$

TEXAS PANHANDLE/OKLAHOMA PANHANDLE

CITY           SKY/WX    TMP DP  RH WIND       PRES   REMARKS
AMARILLO       MOSUNNY   89  57  33 S15       29.88F
BORGER         MOSUNNY   97  57  26 S15G28    29.83F
CANADIAN       SUNNY     96  62  32 S18G26    29.81S
DALHART        MOSUNNY   96  48  19 SW18G30   29.87S
DUMAS          PTCLDY    81  60  50 S25G33    29.90R
GUYMON         NOT AVBL
HEREFORD       MOCLDY    85  67  54 S9        29.91S
PAMPA          PTCLDY    91  58  32 S14G28    29.87F
PERRYTON       MOSUNNY   97  57  26 S24G33    29.82F
$$

SOUTHERN PANHANDLE/SOUTH PLAINS/ROLLING PLAINS

CITY           SKY/WX    TMP DP  RH WIND       PRES   REMARKS
LUBBOCK        PTSUNNY   92  61  35 S20G25    29.90S
SNYDER         SUNNY     94  65  39 SE17G24   29.88S
CHILDRESS      SUNNY     98  59  27 S15G24    29.83F
SEMINOLE       MOCLDY    91  60  35 S22       29.90R
$$

PERMIAN BASIN

CITY           SKY/WX    TMP DP  RH WIND       PRES   REMARKS
MIDLAND        PTSUNNY   93  62  35 SE13      29.87F
ODESSA         LGT RAIN  85  68  56 S12       29.89F
WINK           SUNNY     96  54  24 SE7       29.84F
$$

FAR WEST/SOUTHWEST MOUNTAINS/TRANS PECOS

CITY           SKY/WX    TMP DP  RH WIND       PRES   REMARKS
ALPINE         PTCLDY    85  58  38 S5        30.07R
DRYDEN           N/A     93  64  38 S10       29.89S
EL PASO        MOSUNNY   91  50  24 VRB7      29.93F
FORT STOCKTON  CLOUDY    75  63  66 S26G39    29.94R
GUADALUPE PASS SUNNY     85  50  29 W24G35    30.05S
MARFA          PTSUNNY   84  57  39 S7        30.06S
PECOS          MOCLDY    96  54  24 E8        29.84S
$$

DALLAS/FORT WORTH METROPLEX

CITY           SKY/WX    TMP DP  RH WIND       PRES   REMARKS
DFW AIRPORT    MOSUNNY   97  65  34 S20G26    29.88S
FTW MEACHAM    SUNNY     98  64  32 S15       29.87S
DAL-EXECUTIVE  SUNNY     97  64  33 S10G22    29.89S
GRAND PRAIRIE  SUNNY    N/A N/A N/A SE9G16    29.89F
ADDISON        MOSUNNY   95  63  34 S13G29    29.90S
MESQUITE       PTCLDY    97  64  34 SE12G18   29.90S
LANCASTER      CLEAR     97  62  30 SE15      29.90F
$$

NORTH CENTRAL TEXAS

CITY           SKY/WX    TMP DP  RH WIND       PRES   REMARKS
SHRMAN/DENISON CLEAR     94  63  35 S15       29.91S
GAINESVILLE    SUNNY     91  67  44 SE16G22   29.91S
BRIDGEPORT     CLEAR     97  55  24 S13G18    29.88S
DENTON         SUNNY     96  62  32 S17G28    29.88S
WAXAHACHIE     PTCLDY    96  60  30 S13G18    29.90F
GRANBURY       CLEAR    100  59  25 SE15      29.88R
$$

WESTERN NORTH TEXAS

CITY           SKY/WX    TMP DP  RH WIND       PRES   REMARKS
WICHITA FALLS  MOSUNNY  100  56  23 S15G28    29.82S
VERNON         CLEAR    100  58  24 S15G22    29.82S
BRECKENRIDGE   CLEAR     99  53  21 SE14G22   29.85F
COMANCHE       SUNNY     96  57  26 SE16      29.89F
$$

CENTRAL AND SOUTH CENTRAL TEXAS

CITY           SKY/WX    TMP DP  RH WIND       PRES   REMARKS
AUSTIN/BERGSTM MOSUNNY   99  66  33 SE17      29.86S
WACO           MOSUNNY   98  64  32 S12       29.88F
HILLSBORO      PTCLDY    98  62  30 SE14      29.90S
TEMPLE         SUNNY     99  61  28 SE10G20   29.89R
KILLEEN-GRAY   MOSUNNY   95  63  34 SE15G21   29.89S
FORT HOOD      SUNNY     99  62  29 SE17G25   29.89S
GEORGETOWN     SUNNY     99  61  28 SE14G21   29.89S
LAGO VISTA     FAIR      96  58  28 S10       29.92R
SAN MARCOS     SUNNY     97  64  34 SE17      29.88S
NEW BRAUNFELS  SUNNY     98  64  32 S14       29.86S
RANDOLPH AFB   MOSUNNY   98  63  31 SE15      29.87F
SAN ANTONIO    MOSUNNY   99  62  29 SE16      29.87F
STINSON        SUNNY     99  66  33 SE18G26   29.84F
PLEASANTON     NOT AVBL
LA GRANGE      SUNNY     98  71  40 SE9G21    29.88R
GIDDINGS       PTCLDY    97  64  34 S10G17    29.93S
$$

EAST TEXAS

CITY           SKY/WX    TMP DP  RH WIND       PRES   REMARKS
PARIS          SUNNY     93  70  46 SE13      29.94S
CLARKSVILLE    PTCLDY    94  67  41 SE9       29.95R
TYLER          SUNNY     94  71  47 SE14      29.95R
LONGVIEW       MOSUNNY   93  71  48 S13       29.96R
PALESTINE      CLEAR     93  74  53 SE12      29.95S
NACOGDOCHES    PTSUNNY   82  72  69 SE6       30.00R
$$

TEXAS HILL COUNTRY AND EDWARDS PLATEAU

CITY           SKY/WX    TMP DP  RH WIND       PRES   REMARKS
LLANO          CLEAR     97  59  28 S10G21    29.91S
HORSESHOE BAY  FAIR      97  57  26 S8G18     29.89S
KERRVILLE      MOSUNNY   94  64  37 S16G23    29.92S
FREDERICKSBRG  MOSUNNY   92  59  32 SE12G20   29.92S
ROCKSPRINGS    CLEAR     90  63  40 SE14G20   29.97S
HONDO          SUNNY     96  61  31 SE16      29.87F
UVALDE         MOCLDY    98  63  31 SE14      29.85F
DEL RIO        MOSUNNY   99  60  27 SE15G22   29.81F
$$

SOUTHEAST TEXAS

CITY           SKY/WX    TMP DP  RH WIND       PRES   REMARKS
COLLEGE STN    CLOUDY    83  71  67 SE7       29.93F
CALDWELL       CLOUDY    82  70  65 E6        29.94F
CROCKETT         N/A    N/A N/A N/A MISG        N/A
BRENHAM        CLOUDY    87  73  62 E10       29.93F
HUNTSVILLE     CLOUDY    80  70  71 SE3       29.96S
CONROE         CLOUDY    76  72  87 VRB3      29.97S
HOUSTON BUSH   CLOUDY    82  73  74 SE8       29.96S
HOUSTON HOBBY  PTSUNNY   88  75  65 S8        29.95S
PERLAND        MOSUNNY   90  75  61 S14G22    29.97S
WHARTON        CLEAR     93  72  50 SE17      29.94S
$$

THE UPPER TEXAS COAST

CITY           SKY/WX    TMP DP  RH WIND       PRES   REMARKS
ORANGE         MOCLDY    88  76  67 S9        30.02S
PORT ARTHUR    PTSUNNY   90  76  63 S8        30.00R
GALVESTON      PTSUNNY   87  79  76 S12       29.98F
ANGLETON       MOSUNNY   87  75  67 S16       29.97R
BAY CITY       PTCLDY    91  77  63 S16       29.96R
$$

TEXAS COASTAL BEND, RIO GRANDE PLAINS DEEP SOUTH TEXAS

CITY           SKY/WX    TMP DP  RH WIND       PRES   REMARKS
VICTORIA       SUNNY     95  72  47 S21       29.92R
BEEVILLE       FAIR      92  73  52 SE20G28   29.88R
ROCKPORT       LGT RAIN  89  77  67 SE15G29   29.91R
PORT ARANSAS   MOCLDY    87  78  75 SE13G21   29.91S
PORT LAVACA    PTCLDY    89  75  62 SE16      29.93S
CORPUS CHRISTI PTSUNNY   91  74  57 SE28G35   29.88S
KINGSVILLE NAS PTSUNNY   93  77  59 SE22G35   29.87R
COTULLA        MOSUNNY  101  61  26 SE17G26   29.81F
LAREDO         SUNNY    102  65  29 SE16      29.82S
BROWNSVILLE    MOSUNNY   91  76  61 SE23G31   29.89S
PORT ISABEL    MOSUNNY   91  75  59 SE24G30   29.89S
HEBBRONVILLE   PTCLDY    99  62  30 SE18G25   29.84S
MCALLEN        SUNNY     96  70  42 SE28      29.85R
WESLACO        SUNNY     95  68  40 SE21G29   29.86R
FALFURRIAS     PTCLDY   103  77  43 SE18G31   29.83S HX 119
EDINBURG       PTCLDY    96  67  38 SE21G29   29.85R
$$



USA.gov is the U.S. government's official web portal to all federal, state and local government web resources and services.